STARLINK-36875

Last updated on Sun Apr 12 2026 00:02:08 GMT+0000 (Coordinated Universal Time)

1 68300U 26057G 26101.53621162 .00327006 00000+0 16353-2 0 9990 2 68300 97.2838 225.5861 0001104 71.5336 288.6052 15.80942527 3452
UTC large
Height (km)
Speed (km/s)
/
Latitude / Longitude
Inclination (degrees)
Orbital Period (minutes)
Azimuth
Elevation
Range (km)
Doppler Factor

Next 0 passes for location: London (51.5072 / 0.1276)

Sorry there are no passes over London.
STARLINK-36875